User: anonymous   Login
Location: Campillo
(40.8621°N, 4.2488°W)
Time: 00:34:13
(UTC+00:00)
Language:

Centaur D AC-29 - Orbit

View from above orbital plane
View from above orbital plane
View from above satellite
View from above satellite

Ground track
Ground track

The orbit data is extracted from the following two-line orbital elements,

1 06058U 72041B   21212.69485907 -.00000192  00000-0  32826-4 0  9997
2 06058  26.5824 114.0847 7213797 176.5344 194.8119  2.22331506397746
Epoch (UTC): 31 July 2021 16:40:35
Eccentricity: 0.7213797
inclination: 26.5824°
perigee height: 531 km
apogee height: 36307 km
right ascension of ascending node: 114.0847°
argument of perigee: 176.5344°
revolutions per day: 2.22331506
mean anomaly at epoch: 194.8119°
orbit number at epoch: 39774

The dashed part of the orbit path shows where the satellite is in the earth's shadow,  

DLR